User: anonymous   Login
Location: Central Falls
(41.8900°N, 71.3929°W)
Time: 17:11:19
(UTC+00:00)
Language:

Tiros 1 despin weight - Orbit

View from above orbital plane
View from above orbital plane
View from above satellite
View from above satellite

Ground track
Ground track

The orbit data is extracted from the following two-line orbital elements,

1 00115U 60002D   24110.73147566  .00007808  00000-0  83717-3 0  9994
2 00115  48.1671 356.1586 0031340 323.0750  36.8008 14.88969771400224
Epoch (UTC): 19 April 2024 17:33:19
Eccentricity: 0.0031340
inclination: 48.1671°
perigee height: 579 km
apogee height: 623 km
right ascension of ascending node: 356.1586°
argument of perigee: 323.0750°
revolutions per day: 14.88969771
mean anomaly at epoch: 36.8008°
orbit number at epoch: 40022

The dashed part of the orbit path shows where the satellite is in the earth's shadow,  

DLR